Location: Navalespino
(40.5894°N, 4.2660°W)
Time: 14:03:36
(UTC+00:00)

Cosmos 2227 Rocket - Pass Details

Date: 18 April 2024
Orbit: 837 x 846 km, 71.0° (Epoch: 23 May)

Event Time Altitude Azimuth Distance (km) Brightness Sun altitude
Rises 20:03:13 0° 352° (N) 3,415 5.9 -12.0°
Reaches altitude 10° 20:07:25 10° 22° (NNE) 2,475 4.7 -12.8°
Maximum altitude 20:09:41 12° 45° (NE) 2,309 4.3 -13.1°
Drops below altitude 10° 20:11:57 10° 69° (ENE) 2,470 4.2 -13.5°
Enters shadow 20:12:32 - 75° (ENE) 2,561 4.3 -13.6°
